Honolulu, HI (96801)

12:42 PM HST on August 30, 2015 (GMT -1000)
Pacific Heights | | Change Station
CLOSE
Current Station
Personal Weather Station
Location: Honolulu, HI
Elevation: 528 ft
Nearby Weather Stations

Elev 528 ft 21.33 °N, 157.84 °W | Updated 16 seconds ago

Mostly Cloudy
Mostly Cloudy
85.6 °F
Feels Like 95 °F
N
2.9
Wind Variable Wind from NNE
Gusts 4.0 mph

Today
High -- | Low -- °F
--% Chance of Precip.
Yesterday
High -- | Low -- °F
Precip. -- in
6:14 AM 6:49 PM
Full, 98% visible
Pressure 29.91 in
Visibility 10.0 miles
Clouds Few 2700 ft
Mostly Cloudy 3700 ft
Mostly Cloudy 5000 ft
Heat Index 95 °F
Dew Point 76 °F
Humidity 73%
Rainfall 0.00 in
Snow Depth Not available.
UV 6 out of 12
Pollen Not available.
Air Quality Not available.
Flu Activity Not available.
METAR PHNL 302153Z 07008G17KT 10SM FEW027 BKN037 BKN050 31/22 A2991 RMK AO2 SLP126 T03110217
Pressure 29.91 in
Visibility 10.0 miles
Clouds Few 2700 ft
Mostly Cloudy 3700 ft
Mostly Cloudy 5000 ft
Heat Index 95 °F
Dew Point 76 °F
Humidity 73%
Rainfall 0.00 in
Snow Depth Not available.
UV 6 out of 12
Pollen Not available.
Air Quality Not available.
Flu Activity Not available.
METAR PHNL 302153Z 07008G17KT 10SM FEW027 BKN037 BKN050 31/22 A2991 RMK AO2 SLP126 T03110217
Hurricane Ignacio strengthened into a Category 4 hurricane Saturday and its current forecast track takes it just north of The Big Island Monday. While it is not a direct threat to make landfall in Hawaii, a track slightly to the south of its current forecast track could deteriorate weather conditions in the state. See the forecast track

10-Day Weather Forecast

×

Almanac

Astronomy

Aug. 30, 2015 Rise Set
Actual Time
Civil Twilight
Nautical Twilight
Astronomical Twilight
Moon
Length of Visible Light
Length of Day
Tomorrow will be .
, % of the Moon is Illuminated

Today's Extremes

State Highs State Lows

Community

WunderPhotos

Upload Photos

1,851,075 photos uploaded!

WunderBlogs® & News

Nearby

Air Quality

  Air Quality AQ Index Pollutant
Not available.

Snow Depth

Station Depth Elevation

Earthquake Activity

City Distance Mag. Time & Date
Minimum magnitude displayed is 2.5.

Coastal Water Temperatures

Place Temperature

Stations

Nearby Weather Stations

Station Location Temp. Windchill Dew Point Humidity Wind Precip. Elev Updated Type